Wetterdaten: Mittwoch, 09.03.2011
Datum Zeit Temp. A. Feuchte A. Luftdruck Regen Wind Richtung Richtung Sonnenschein UV Solar Windben
09.03.2011 00:00 1,0 C 72 % 1017,4 hPa 0,0 mm 0,0 km/h (0 Bft) N 0 0 min 0 UV-I 0 W/m 0,0 km/h (0 Bft)
09.03.2011 00:10 0,9 C 73 % 1017,3 hPa 0,0 mm 0,0 km/h (0 Bft) N 0 0 min 0 UV-I 0 W/m 0,0 km/h (0 Bft)
09.03.2011 00:20 0,8 C 73 % 1017,2 hPa 0,0 mm 0,0 km/h (0 Bft) N 0 0 min 0 UV-I 0 W/m 0,0 km/h (0 Bft)
09.03.2011 00:30 0,6 C 75 % 1017,1 hPa 0,0 mm 0,0 km/h (0 Bft) N 0 0 min 0 UV-I 0 W/m 0,0 km/h (0 Bft)
09.03.2011 00:40 0,5 C 76 % 1017,0 hPa 0,0 mm 0,0 km/h (0 Bft) N 0 0 min 0 UV-I 0 W/m 0,0 km/h (0 Bft)
09.03.2011 00:50 0,4 C 77 % 1016,8 hPa 0,0 mm 0,0 km/h (0 Bft) S-SO 157 0 min 0 UV-I 0 W/m 1,6 km/h (1 Bft)
09.03.2011 01:00 0,7 C 78 % 1016,7 hPa 0,0 mm 0,0 km/h (0 Bft) S-SO 157 0 min 0 UV-I 0 W/m 1,6 km/h (1 Bft)
09.03.2011 01:10 1,3 C 78 % 1016,6 hPa 0,0 mm 0,0 km/h (0 Bft) S-SO 157 0 min 0 UV-I 0 W/m 1,6 km/h (1 Bft)
09.03.2011 01:20 2,1 C 78 % 1016,6 hPa 0,0 mm 0,0 km/h (0 Bft) S-SO 157 0 min 0 UV-I 0 W/m 1,6 km/h (1 Bft)
09.03.2011 01:30 2,7 C 77 % 1016,5 hPa 0,0 mm 0,0 km/h (0 Bft) S-SO 157 0 min 0 UV-I 0 W/m 1,6 km/h (1 Bft)
09.03.2011 01:40 3,1 C 76 % 1016,4 hPa 0,0 mm 0,0 km/h (0 Bft) S-SO 157 0 min 0 UV-I 0 W/m 1,6 km/h (1 Bft)
09.03.2011 01:50 3,6 C 76 % 1016,4 hPa 0,0 mm 0,0 km/h (0 Bft) S-SO 157 0 min 0 UV-I 0 W/m 3,2 km/h (1 Bft)
09.03.2011 02:00 4,2 C 75 % 1016,2 hPa 0,0 mm 0,0 km/h (0 Bft) S-SO 157 0 min 0 UV-I 0 W/m 1,6 km/h (1 Bft)
09.03.2011 02:10 4,5 C 75 % 1016,1 hPa 0,0 mm 1,6 km/h (1 Bft) S-SO 157 0 min 0 UV-I 0 W/m 4,8 km/h (1 Bft)
09.03.2011 02:20 5,3 C 73 % 1016,0 hPa 0,0 mm 1,6 km/h (1 Bft) S 180 0 min 0 UV-I 0 W/m 6,4 km/h (2 Bft)
09.03.2011 02:30 6,1 C 70 % 1015,8 hPa 0,0 mm 3,2 km/h (1 Bft) SW 225 0 min 0 UV-I 0 W/m 9,7 km/h (2 Bft)
09.03.2011 02:40 6,8 C 68 % 1015,5 hPa 0,0 mm 3,2 km/h (1 Bft) SW 225 0 min 0 UV-I 0 W/m 11,3 km/h (2 Bft)
09.03.2011 02:50 7,1 C 68 % 1015,4 hPa 0,0 mm 3,2 km/h (1 Bft) SW 225 0 min 0 UV-I 0 W/m 11,3 km/h (2 Bft)
09.03.2011 03:00 7,3 C 68 % 1015,3 hPa 0,0 mm 3,2 km/h (1 Bft) SW 225 0 min 0 UV-I 0 W/m 11,3 km/h (2 Bft)
09.03.2011 03:10 7,3 C 68 % 1015,2 hPa 0,0 mm 3,2 km/h (1 Bft) SW 225 0 min 0 UV-I 0 W/m 14,5 km/h (3 Bft)
09.03.2011 03:20 7,3 C 69 % 1015,0 hPa 0,0 mm 1,6 km/h (1 Bft) SW 225 0 min 0 UV-I 0 W/m 8,0 km/h (2 Bft)
09.03.2011 03:30 7,5 C 68 % 1014,9 hPa 0,0 mm 3,2 km/h (1 Bft) SW 225 0 min 0 UV-I 0 W/m 8,0 km/h (2 Bft)
09.03.2011 03:40 7,7 C 69 % 1014,8 hPa 0,0 mm 4,8 km/h (1 Bft) SW 225 0 min 0 UV-I 0 W/m 16,1 km/h (3 Bft)
09.03.2011 03:50 8,0 C 68 % 1014,8 hPa 0,0 mm 3,2 km/h (1 Bft) SW 225 0 min 0 UV-I 0 W/m 16,1 km/h (3 Bft)
09.03.2011 04:00 8,1 C 68 % 1014,7 hPa 0,0 mm 3,2 km/h (1 Bft) SW 225 0 min 0 UV-I 0 W/m 9,7 km/h (2 Bft)
09.03.2011 04:10 8,0 C 68 % 1014,6 hPa 0,0 mm 3,2 km/h (1 Bft) SW 225 0 min 0 UV-I 0 W/m 11,3 km/h (2 Bft)
09.03.2011 04:20 7,9 C 68 % 1014,6 hPa 0,0 mm 1,6 km/h (1 Bft) SW 225 0 min 0 UV-I 0 W/m 14,5 km/h (3 Bft)
09.03.2011 04:30 7,7 C 69 % 1014,5 hPa 0,0 mm 1,6 km/h (1 Bft) W-SW 247 0 min 0 UV-I 0 W/m 12,9 km/h (3 Bft)
09.03.2011 04:40 7,6 C 69 % 1014,3 hPa 0,0 mm 1,6 km/h (1 Bft) SW 225 0 min 0 UV-I 0 W/m 9,7 km/h (2 Bft)
09.03.2011 04:50 7,4 C 70 % 1014,3 hPa 0,0 mm 1,6 km/h (1 Bft) SW 225 0 min 0 UV-I 0 W/m 11,3 km/h (2 Bft)
09.03.2011 05:00 7,4 C 70 % 1014,3 hPa 0,0 mm 1,6 km/h (1 Bft) S-SW 202 0 min 0 UV-I 0 W/m 11,3 km/h (2 Bft)
09.03.2011 05:10 7,6 C 70 % 1014,2 hPa 0,0 mm 3,2 km/h (1 Bft) W-SW 247 0 min 0 UV-I 0 W/m 9,7 km/h (2 Bft)
09.03.2011 05:20 7,9 C 69 % 1014,2 hPa 0,0 mm 3,2 km/h (1 Bft) SW 225 0 min 0 UV-I 0 W/m 9,7 km/h (2 Bft)
09.03.2011 05:30 8,1 C 69 % 1014,3 hPa 0,0 mm 1,6 km/h (1 Bft) SW 225 0 min 0 UV-I 0 W/m 9,7 km/h (2 Bft)
09.03.2011 05:40 8,1 C 69 % 1014,1 hPa 0,0 mm 3,2 km/h (1 Bft) SW 225 0 min 0 UV-I 0 W/m 11,3 km/h (2 Bft)
09.03.2011 05:50 8,0 C 69 % 1014,1 hPa 0,0 mm 1,6 km/h (1 Bft) W-SW 247 0 min 0 UV-I 0 W/m 9,7 km/h (2 Bft)
09.03.2011 06:00 7,9 C 70 % 1014,0 hPa 0,0 mm 3,2 km/h (1 Bft) SW 225 0 min 0 UV-I 0 W/m 11,3 km/h (2 Bft)
09.03.2011 06:10 7,8 C 70 % 1014,1 hPa 0,0 mm 3,2 km/h (1 Bft) SW 225 0 min 0 UV-I 0 W/m 12,9 km/h (3 Bft)
09.03.2011 06:20 7,8 C 70 % 1014,1 hPa 0,0 mm 3,2 km/h (1 Bft) SW 225 0 min 0 UV-I 0 W/m 9,7 km/h (2 Bft)
09.03.2011 06:30 7,7 C 71 % 1014,1 hPa 0,0 mm 1,6 km/h (1 Bft) SW 225 0 min 0 UV-I 0 W/m 8,0 km/h (2 Bft)
09.03.2011 06:40 7,7 C 71 % 1014,1 hPa 0,0 mm 3,2 km/h (1 Bft) SW 225 0 min 0 UV-I 0 W/m 9,7 km/h (2 Bft)
09.03.2011 06:50 7,7 C 71 % 1014,2 hPa 0,0 mm 1,6 km/h (1 Bft) SW 225 0 min 0 UV-I 0 W/m 8,0 km/h (2 Bft)
09.03.2011 07:00 7,7 C 71 % 1014,0 hPa 0,0 mm 3,2 km/h (1 Bft) SW 225 0 min 0 UV-I 5 W/m 9,7 km/h (2 Bft)
09.03.2011 07:10 7,8 C 71 % 1013,9 hPa 0,0 mm 3,2 km/h (1 Bft) W-SW 247 0 min 0 UV-I 5 W/m 9,7 km/h (2 Bft)
09.03.2011 07:20 7,9 C 72 % 1013,9 hPa 0,0 mm 3,2 km/h (1 Bft) SW 225 0 min 0 UV-I 9 W/m 9,7 km/h (2 Bft)
09.03.2011 07:30 8,1 C 72 % 1014,0 hPa 0,0 mm 3,2 km/h (1 Bft) SW 225 0 min 0 UV-I 14 W/m 9,7 km/h (2 Bft)
09.03.2011 07:40 8,3 C 71 % 1013,9 hPa 0,0 mm 4,8 km/h (1 Bft) SW 225 0 min 0 UV-I 14 W/m 17,7 km/h (3 Bft)
09.03.2011 07:50 8,4 C 71 % 1013,7 hPa 0,0 mm 4,8 km/h (1 Bft) S-SW 202 0 min 0 UV-I 54 W/m 16,1 km/h (3 Bft)
09.03.2011 08:00 8,5 C 71 % 1013,6 hPa 0,0 mm 4,8 km/h (1 Bft) SW 218 10 min 0 UV-I 94 W/m 14,5 km/h (3 Bft)
09.03.2011 08:10 8,6 C 70 % 1013,6 hPa 0,0 mm 4,8 km/h (1 Bft) SW 225 10 min 0 UV-I 141 W/m 16,1 km/h (3 Bft)
09.03.2011 08:20 8,8 C 70 % 1013,5 hPa 0,0 mm 6,4 km/h (2 Bft) SW 225 10 min 0 UV-I 142 W/m 16,1 km/h (3 Bft)
09.03.2011 08:30 9,1 C 70 % 1013,4 hPa 0,0 mm 4,8 km/h (1 Bft) SW 225 10 min 1 UV-I 174 W/m 17,7 km/h (3 Bft)
09.03.2011 08:40 9,2 C 70 % 1013,4 hPa 0,0 mm 4,8 km/h (1 Bft) SW 225 10 min 1 UV-I 195 W/m 16,1 km/h (3 Bft)
09.03.2011 08:50 9,3 C 70 % 1013,4 hPa 0,0 mm 4,8 km/h (1 Bft) SW 225 10 min 1 UV-I 197 W/m 16,1 km/h (3 Bft)
09.03.2011 09:00 9,6 C 69 % 1013,5 hPa 0,0 mm 6,4 km/h (2 Bft) SW 225 10 min 1 UV-I 185 W/m 17,7 km/h (3 Bft)
09.03.2011 09:10 9,6 C 69 % 1013,4 hPa 0,0 mm 6,4 km/h (2 Bft) SW 225 0 min 1 UV-I 90 W/m 20,9 km/h (4 Bft)
09.03.2011 09:20 9,6 C 70 % 1013,0 hPa 0,0 mm 8,0 km/h (2 Bft) SW 225 10 min 1 UV-I 267 W/m 20,9 km/h (4 Bft)
09.03.2011 09:30 9,9 C 69 % 1013,1 hPa 0,0 mm 11,3 km/h (2 Bft) W-SW 247 10 min 1 UV-I 301 W/m 25,7 km/h (4 Bft)
09.03.2011 09:40 9,9 C 69 % 1012,9 hPa 0,0 mm 8,0 km/h (2 Bft) SW 225 0 min 1 UV-I 102 W/m 25,7 km/h (4 Bft)
09.03.2011 09:50 9,8 C 70 % 1012,7 hPa 0,0 mm 9,7 km/h (2 Bft) SW 225 0 min 1 UV-I 144 W/m 24,1 km/h (4 Bft)
09.03.2011 10:00 9,8 C 69 % 1012,7 hPa 0,0 mm 9,7 km/h (2 Bft) W-SW 247 0 min 1 UV-I 199 W/m 29,0 km/h (5 Bft)
09.03.2011 10:10 9,9 C 69 % 1012,8 hPa 0,0 mm 11,3 km/h (2 Bft) W-SW 247 0 min 1 UV-I 167 W/m 30,6 km/h (5 Bft)
09.03.2011 10:20 10,0 C 69 % 1013,0 hPa 0,0 mm 9,7 km/h (2 Bft) W-SW 247 0 min 1 UV-I 125 W/m 25,7 km/h (4 Bft)
09.03.2011 10:30 10,0 C 69 % 1013,0 hPa 0,0 mm 9,7 km/h (2 Bft) W-SW 247 0 min 1 UV-I 207 W/m 32,2 km/h (5 Bft)
09.03.2011 10:40 10,0 C 68 % 1013,0 hPa 0,0 mm 12,9 km/h (3 Bft) W-SW 247 0 min 1 UV-I 188 W/m 37,0 km/h (5 Bft)
09.03.2011 10:50 9,9 C 67 % 1013,0 hPa 0,0 mm 14,5 km/h (3 Bft) W 270 10 min 1 UV-I 288 W/m 29,0 km/h (5 Bft)
09.03.2011 11:00 9,9 C 67 % 1013,1 hPa 0,0 mm 16,1 km/h (3 Bft) W-SW 247 0 min 1 UV-I 260 W/m 37,0 km/h (5 Bft)
09.03.2011 11:10 10,1 C 67 % 1013,2 hPa 0,0 mm 14,5 km/h (3 Bft) W-SW 247 0 min 1 UV-I 223 W/m 35,4 km/h (5 Bft)
09.03.2011 11:20 9,9 C 67 % 1013,2 hPa 0,0 mm 14,5 km/h (3 Bft) W-SW 247 10 min 2 UV-I 584 W/m 32,2 km/h (5 Bft)
09.03.2011 11:30 10,2 C 65 % 1013,3 hPa 0,0 mm 14,5 km/h (3 Bft) W-SW 247 0 min 2 UV-I 197 W/m 38,6 km/h (5 Bft)
09.03.2011 11:40 10,2 C 64 % 1013,3 hPa 0,0 mm 17,7 km/h (3 Bft) W-SW 247 10 min 2 UV-I 352 W/m 38,6 km/h (5 Bft)
09.03.2011 11:50 10,3 C 63 % 1013,2 hPa 0,0 mm 16,1 km/h (3 Bft) W-SW 247 10 min 2 UV-I 406 W/m 35,4 km/h (5 Bft)
09.03.2011 12:00 10,4 C 63 % 1013,1 hPa 0,0 mm 17,7 km/h (3 Bft) W-SW 247 10 min 2 UV-I 411 W/m 35,4 km/h (5 Bft)
09.03.2011 12:10 10,4 C 62 % 1013,2 hPa 0,0 mm 14,5 km/h (3 Bft) W-SW 247 0 min 2 UV-I 285 W/m 30,6 km/h (5 Bft)
09.03.2011 12:20 10,4 C 61 % 1013,1 hPa 0,0 mm 14,5 km/h (3 Bft) W-SW 247 10 min 2 UV-I 325 W/m 30,6 km/h (5 Bft)
09.03.2011 12:30 10,7 C 59 % 1013,1 hPa 0,0 mm 12,9 km/h (3 Bft) W-SW 247 10 min 2 UV-I 684 W/m 30,6 km/h (5 Bft)
09.03.2011 12:40 11,1 C 54 % 1013,0 hPa 0,0 mm 17,7 km/h (3 Bft) W-SW 247 10 min 2 UV-I 710 W/m 38,6 km/h (5 Bft)
09.03.2011 12:50 10,8 C 55 % 1013,1 hPa 0,0 mm 14,5 km/h (3 Bft) W-SW 247 10 min 2 UV-I 329 W/m 35,4 km/h (5 Bft)
09.03.2011 13:00 10,7 C 56 % 1012,9 hPa 0,0 mm 12,9 km/h (3 Bft) W-SW 247 0 min 2 UV-I 304 W/m 38,6 km/h (5 Bft)
09.03.2011 13:10 10,6 C 58 % 1012,8 hPa 0,0 mm 14,5 km/h (3 Bft) W-SW 247 10 min 1 UV-I 318 W/m 33,8 km/h (5 Bft)
09.03.2011 13:20 10,3 C 59 % 1012,9 hPa 0,0 mm 12,9 km/h (3 Bft) W-SW 247 0 min 1 UV-I 114 W/m 30,6 km/h (5 Bft)
09.03.2011 13:30 10,1 C 60 % 1012,9 hPa 0,0 mm 11,3 km/h (2 Bft) W-SW 247 0 min 1 UV-I 104 W/m 27,4 km/h (4 Bft)
09.03.2011 13:40 10,0 C 60 % 1012,8 hPa 0,0 mm 14,5 km/h (3 Bft) W-SW 247 0 min 1 UV-I 100 W/m 35,4 km/h (5 Bft)
09.03.2011 13:50 10,0 C 61 % 1012,7 hPa 0,0 mm 9,7 km/h (2 Bft) W-SW 247 0 min 1 UV-I 229 W/m 30,6 km/h (5 Bft)
09.03.2011 14:00 10,3 C 61 % 1012,6 hPa 0,0 mm 11,3 km/h (2 Bft) W-SW 247 0 min 1 UV-I 260 W/m 43,5 km/h (6 Bft)
09.03.2011 14:10 10,2 C 62 % 1012,7 hPa 0,0 mm 12,9 km/h (3 Bft) W-SW 247 0 min 1 UV-I 130 W/m 30,6 km/h (5 Bft)
09.03.2011 14:20 9,9 C 63 % 1012,9 hPa 0,0 mm 14,5 km/h (3 Bft) W 270 0 min 1 UV-I 63 W/m 32,2 km/h (5 Bft)
09.03.2011 14:30 9,6 C 66 % 1013,0 hPa 0,0 mm 11,3 km/h (2 Bft) W 270 0 min 0 UV-I 60 W/m 29,0 km/h (5 Bft)
09.03.2011 14:40 9,2 C 70 % 1013,1 hPa 0,0 mm 17,7 km/h (3 Bft) W-SW 247 0 min 1 UV-I 69 W/m 41,8 km/h (6 Bft)
09.03.2011 14:50 8,8 C 73 % 1013,1 hPa 0,0 mm 9,7 km/h (2 Bft) W 270 0 min 0 UV-I 60 W/m 29,0 km/h (5 Bft)
09.03.2011 15:00 8,4 C 77 % 1013,4 hPa 0,0 mm 11,3 km/h (2 Bft) W 270 0 min 1 UV-I 102 W/m 25,7 km/h (4 Bft)
09.03.2011 15:10 8,1 C 80 % 1013,5 hPa 0,0 mm 9,7 km/h (2 Bft) W 270 0 min 1 UV-I 102 W/m 24,1 km/h (4 Bft)
09.03.2011 15:20 7,8 C 82 % 1013,6 hPa 0,0 mm 9,7 km/h (2 Bft) W 270 0 min 0 UV-I 63 W/m 20,9 km/h (4 Bft)
09.03.2011 15:30 7,6 C 83 % 1013,7 hPa 0,0 mm 9,7 km/h (2 Bft) W-SW 247 0 min 0 UV-I 54 W/m 27,4 km/h (4 Bft)
09.03.2011 15:40 7,5 C 83 % 1013,6 hPa 0,0 mm 11,3 km/h (2 Bft) W 270 0 min 0 UV-I 42 W/m 29,0 km/h (5 Bft)
09.03.2011 15:50 7,4 C 83 % 1013,7 hPa 0,0 mm 9,7 km/h (2 Bft) W-SW 247 0 min 0 UV-I 46 W/m 24,1 km/h (4 Bft)
09.03.2011 16:00 7,4 C 83 % 1013,6 hPa 0,0 mm 12,4 km/h (3 Bft) W 265 0 min 0 UV-I 22 W/m 29,0 km/h (5 Bft)
09.03.2011 16:10 7,4 C 84 % 1013,6 hPa 0,0 mm 9,7 km/h (2 Bft) W-SW 247 0 min 0 UV-I 19 W/m 22,5 km/h (4 Bft)
09.03.2011 16:20 7,3 C 85 % 1013,7 hPa 0,0 mm 9,7 km/h (2 Bft) W-SW 247 0 min 0 UV-I 28 W/m 25,7 km/h (4 Bft)
09.03.2011 16:30 7,2 C 86 % 1013,7 hPa 0,0 mm 11,3 km/h (2 Bft) W-SW 247 0 min 0 UV-I 46 W/m 24,1 km/h (4 Bft)
09.03.2011 16:40 7,1 C 86 % 1013,5 hPa 0,0 mm 6,4 km/h (2 Bft) SW 225 0 min 0 UV-I 60 W/m 16,1 km/h (3 Bft)
09.03.2011 16:50 7,1 C 87 % 1013,6 hPa 0,0 mm 8,0 km/h (2 Bft) W-SW 247 0 min 0 UV-I 69 W/m 20,9 km/h (4 Bft)
09.03.2011 17:00 7,2 C 86 % 1013,7 hPa 0,0 mm 6,4 km/h (2 Bft) SW 225 0 min 0 UV-I 47 W/m 17,7 km/h (3 Bft)
09.03.2011 17:10 7,2 C 86 % 1013,6 hPa 0,0 mm 8,0 km/h (2 Bft) W-SW 247 0 min 0 UV-I 21 W/m 20,9 km/h (4 Bft)
09.03.2011 17:20 7,2 C 86 % 1013,8 hPa 0,0 mm 8,0 km/h (2 Bft) W-SW 247 0 min 0 UV-I 12 W/m 22,5 km/h (4 Bft)
09.03.2011 17:30 7,1 C 85 % 1013,9 hPa 0,0 mm 6,4 km/h (2 Bft) W-SW 247 0 min 0 UV-I 7 W/m 20,9 km/h (4 Bft)
09.03.2011 17:40 7,1 C 85 % 1014,1 hPa 0,0 mm 6,4 km/h (2 Bft) W-SW 247 0 min 0 UV-I 0 W/m 16,1 km/h (3 Bft)
09.03.2011 17:50 7,1 C 85 % 1014,0 hPa 0,0 mm 6,4 km/h (2 Bft) W-SW 247 0 min 0 UV-I 0 W/m 24,1 km/h (4 Bft)
09.03.2011 18:00 7,1 C 85 % 1014,1 hPa 0,3 mm 8,0 km/h (2 Bft) W 270 0 min 0 UV-I 0 W/m 20,9 km/h (4 Bft)
09.03.2011 18:10 7,1 C 85 % 1013,9 hPa 0,0 mm 6,4 km/h (2 Bft) W-SW 247 0 min 0 UV-I 0 W/m 17,7 km/h (3 Bft)
09.03.2011 18:20 6,9 C 85 % 1013,8 hPa 0,0 mm 4,8 km/h (1 Bft) W-SW 247 0 min 0 UV-I 0 W/m 14,5 km/h (3 Bft)
09.03.2011 18:30 6,9 C 85 % 1014,0 hPa 0,0 mm 4,8 km/h (1 Bft) W-SW 247 0 min 0 UV-I 0 W/m 20,9 km/h (4 Bft)
09.03.2011 18:40 7,0 C 84 % 1014,0 hPa 0,0 mm 8,0 km/h (2 Bft) W-SW 247 0 min 0 UV-I 0 W/m 27,4 km/h (4 Bft)
09.03.2011 18:50 7,1 C 84 % 1014,1 hPa 0,0 mm 6,4 km/h (2 Bft) W-SW 247 0 min 0 UV-I 0 W/m 24,1 km/h (4 Bft)
09.03.2011 19:00 7,1 C 84 % 1014,2 hPa 0,0 mm 6,4 km/h (2 Bft) W-SW 247 0 min 0 UV-I 0 W/m 19,3 km/h (3 Bft)
09.03.2011 19:10 6,9 C 84 % 1014,4 hPa 0,0 mm 4,8 km/h (1 Bft) S-SW 202 0 min 0 UV-I 0 W/m 16,1 km/h (3 Bft)
09.03.2011 19:20 6,8 C 85 % 1014,4 hPa 0,0 mm 4,8 km/h (1 Bft) W-SW 247 0 min 0 UV-I 0 W/m 17,7 km/h (3 Bft)
09.03.2011 19:30 6,8 C 84 % 1014,6 hPa 0,0 mm 4,8 km/h (1 Bft) W-SW 247 0 min 0 UV-I 0 W/m 17,7 km/h (3 Bft)
09.03.2011 19:40 6,8 C 83 % 1014,6 hPa 0,0 mm 8,0 km/h (2 Bft) W-SW 247 0 min 0 UV-I 0 W/m 22,5 km/h (4 Bft)
09.03.2011 19:50 6,8 C 82 % 1014,7 hPa 0,0 mm 6,4 km/h (2 Bft) W-SW 247 0 min 0 UV-I 0 W/m 20,9 km/h (4 Bft)
09.03.2011 20:00 6,8 C 82 % 1014,7 hPa 0,0 mm 4,8 km/h (1 Bft) W-SW 247 0 min 0 UV-I 0 W/m 12,9 km/h (3 Bft)
09.03.2011 20:10 6,8 C 83 % 1014,8 hPa 0,0 mm 6,4 km/h (2 Bft) W-SW 247 0 min 0 UV-I 0 W/m 19,3 km/h (3 Bft)
09.03.2011 20:20 6,8 C 83 % 1014,7 hPa 0,0 mm 4,8 km/h (1 Bft) W-SW 247 0 min 0 UV-I 0 W/m 12,9 km/h (3 Bft)
09.03.2011 20:30 6,7 C 84 % 1014,8 hPa 0,0 mm 3,2 km/h (1 Bft) W-SW 247 0 min 0 UV-I 0 W/m 11,3 km/h (2 Bft)
09.03.2011 20:40 6,6 C 85 % 1014,8 hPa 0,0 mm 3,2 km/h (1 Bft) SW 225 0 min 0 UV-I 0 W/m 14,5 km/h (3 Bft)
09.03.2011 20:50 6,5 C 85 % 1014,9 hPa 0,0 mm 3,2 km/h (1 Bft) SW 225 0 min 0 UV-I 0 W/m 11,3 km/h (2 Bft)
09.03.2011 21:00 6,5 C 85 % 1014,8 hPa 0,0 mm 4,8 km/h (1 Bft) W-SW 247 0 min 0 UV-I 0 W/m 17,7 km/h (3 Bft)
09.03.2011 21:10 6,5 C 85 % 1014,9 hPa 0,0 mm 3,2 km/h (1 Bft) W-SW 247 0 min 0 UV-I 0 W/m 14,5 km/h (3 Bft)
09.03.2011 21:20 6,4 C 85 % 1014,8 hPa 0,0 mm 3,2 km/h (1 Bft) SW 225 0 min 0 UV-I 0 W/m 16,1 km/h (3 Bft)
09.03.2011 21:30 6,4 C 85 % 1014,8 hPa 0,0 mm 3,2 km/h (1 Bft) W-SW 247 0 min 0 UV-I 0 W/m 11,3 km/h (2 Bft)
09.03.2011 21:40 6,3 C 85 % 1015,0 hPa 0,0 mm 1,6 km/h (1 Bft) W-SW 247 0 min 0 UV-I 0 W/m 9,7 km/h (2 Bft)
09.03.2011 21:50 6,1 C 85 % 1014,9 hPa 0,0 mm 1,6 km/h (1 Bft) W 270 0 min 0 UV-I 0 W/m 6,4 km/h (2 Bft)
09.03.2011 22:00 6,0 C 85 % 1014,9 hPa 0,0 mm 1,6 km/h (1 Bft) W-SW 247 0 min 0 UV-I 0 W/m 9,7 km/h (2 Bft)
09.03.2011 22:10 5,9 C 84 % 1015,0 hPa 0,0 mm 3,2 km/h (1 Bft) W-SW 247 0 min 0 UV-I 0 W/m 11,3 km/h (2 Bft)
09.03.2011 22:20 5,9 C 84 % 1014,9 hPa 0,0 mm 3,2 km/h (1 Bft) W-SW 247 0 min 0 UV-I 0 W/m 8,0 km/h (2 Bft)
09.03.2011 22:30 5,8 C 84 % 1015,0 hPa 0,0 mm 3,2 km/h (1 Bft) SW 225 0 min 0 UV-I 0 W/m 8,0 km/h (2 Bft)
09.03.2011 22:40 5,7 C 84 % 1014,9 hPa 0,0 mm 1,6 km/h (1 Bft) W-SW 247 0 min 0 UV-I 0 W/m 9,7 km/h (2 Bft)
09.03.2011 22:50 5,7 C 84 % 1014,9 hPa 0,0 mm 3,2 km/h (1 Bft) W-SW 247 0 min 0 UV-I 0 W/m 8,0 km/h (2 Bft)
09.03.2011 23:00 5,7 C 83 % 1014,9 hPa 0,0 mm 1,6 km/h (1 Bft) W-SW 247 0 min 0 UV-I 0 W/m 9,7 km/h (2 Bft)
09.03.2011 23:10 5,6 C 83 % 1014,9 hPa 0,0 mm 1,6 km/h (1 Bft) W-SW 247 0 min 0 UV-I 0 W/m 8,0 km/h (2 Bft)
09.03.2011 23:20 5,6 C 83 % 1015,0 hPa 0,0 mm 1,6 km/h (1 Bft) W-SW 247 0 min 0 UV-I 0 W/m 8,0 km/h (2 Bft)
09.03.2011 23:30 5,6 C 83 % 1014,8 hPa 0,0 mm 1,6 km/h (1 Bft) W-SW 247 0 min 0 UV-I 0 W/m 8,0 km/h (2 Bft)
09.03.2011 23:40 5,6 C 83 % 1014,9 hPa 0,0 mm 1,6 km/h (1 Bft) SW 225 0 min 0 UV-I 0 W/m 8,0 km/h (2 Bft)
09.03.2011 23:50 5,6 C 83 % 1014,8 hPa 0,0 mm 1,6 km/h (1 Bft) SW 225 0 min 0 UV-I 0 W/m 6,4 km/h (2 Bft)
_ Min-Zeit 00:40 12:40 14:00 - 00:00 - - - - - 00:00
Minimum _ 0,4 C 54 % 1012,6 hPa - 0,0 km/h (0 Bft) - - - - - 0,0 km/h (0 Bft)
_ Max-Zeit 12:40 16:50 00:00 18:00 11:40 - - 08:00 12:30 12:40 14:00
Maximum _ 11,2 C 87 % 1017,4 hPa 0,3 mm 17,7 km/h
W-SW (3 Bft)
- - 10 min 2 UV-I 710 W/m 43,5 km/h
W (6 Bft)
Durchschnitt _ 7,4 C 74 % 1014,2 hPa #0,3 mm 6,2 km/h (2 Bft) W-SW - #3:10 h 1 UV-I 166 W/m 17,7 km/h (3 Bft)